Temp
9 9 9 9 9 9 9 9 9 8 9 9 9 9 8 8 8 8 9 9 9 9 10 11 13 13 12 17 20 20 20 17 16 18 20 22 22 22 23 24 24 23 23 25 25 24 24
9 9 9 9 9 9 9 9 8 8 8 9 9 8 8 8 8 8 9 9 11 10 10 12 11 10 13 17 19 18 17 16 17 18 20 22 23 24 23 24 23 24 23 24 24 23 23
9 9 8 8 8 8 8 8 8 8 8 8 8 8 8 8 8 8 10 11 12 11 12 13 12 11 15 18 18 18 17 17 18 19 21 21 22 22 23 22 23 22 21 22 22 23 22
8 8 8 8 8 8 8 8 8 8 8 8 8 8 8 8 8 8 10 12 12 13 13 13 12 12 16 17 17 17 17 18 17 18 19 20 20 21 22 23 21 20 21 21 25 24 23
8 8 8 8 8 8 8 8 7 8 8 8 7 7 7 7 7 8 10 13 12 12 12 11 12 15 18 16 16 17 17 18 18 18 18 18 19 20 21 19 20 22 21 22 23 23 22
8 8 7 7 7 7 7 7 7 7 7 7 7 7 7 7 8 9 12 13 12 11 12 12 14 14 18 18 17 16 17 18 18 18 18 18 19 19 19 20 20 22 22 23 22 24 21
7 7 7 7 7 7 7 7 7 7 7 7 7 6 6 7 8 9 10 15 15 17 14 16 17 18 17 17 15 17 17 18 18 18 18 18 18 18 20 21 22 23 23 24 24 24 21
7 7 7 7 7 7 7 7 7 7 7 7 6 6 6 7 8 9 11 12 9 8 8 13 14 15 15 14 15 18 17 17 17 17 19 19 17 20 22 22 22 21 21 21 23 24 22
7 7 7 7 7 7 7 7 7 7 6 6 6 6 6 7 9 10 10 9 8 8 10 15 15 15 16 14 16 17 17 18 18 18 19 19 21 20 20 20 20 19 20 20 21 22 20
6 7 7 7 7 7 7 7 7 7 6 6 6 6 7 7 11 10 12 9 9 8 13 18 16 16 15 15 16 17 17 18 18 17 18 19 20 19 19 19 19 18 21 20 20 18 18
7 7 7 7 7 7 7 7 7 7 6 6 6 6 6 7 7 10 10 8 8 10 17 17 16 15 16 16 16 15 16 16 16 17 17 18 18 17 17 18 19 18 18 19 18 18 18
6 7 7 6 6 6 6 7 6 6 6 6 6 7 7 8 8 9 8 8 9 15 16 18 16 16 16 16 16 15 15 15 16 16 17 17 18 16 18 19 18 18 17 17 17 18 16
6 6 6 6 6 6 6 6 6 6 6 6 6 6 7 7 9 8 7 11 15 16 19 18 16 16 16 17 17 15 15 14 16 14 16 17 17 17 17 16 17 17 17 17 16 16 16
6 6 6 6 6 6 6 6 6 6 6 6 6 7 8 7 6 7 9 13 14 19 20 15 15 15 15 18 17 18 16 16 17 17 16 16 17 18 18 16 18 16 18 18 17 19 20
6 6 6 6 6 6 6 6 6 6 6 5 6 7 9 8 7 7 11 13 16 13 13 12 14 15 17 16 14 16 16 16 18 19 15 18 18 17 17 18 17 18 16 19 18 19 18
5 5 6 5 5 5 5 5 5 5 5 5 6 8 9 8 7 9 11 12 13 12 11 12 12 15 14 16 15 15 16 17 16 17 17 17 16 18 17 15 16 17 18 15 16 15 16
5 5 5 5 5 5 5 5 5 5 5 5 6 7 8 7 8 9 7 10 12 12 11 11 11 11 12 13 13 13 14 16 16 15 14 15 15 15 15 14 16 15 14 16 17 17 16
5 5 5 5 5 5 5 5 5 5 5 5 5 5 7 7 8 9 10 10 9 10 11 11 11 10 10 10 9 11 12 13 13 11 11 13 11 13 15 16 14 13 14 16 15 15 16
5 5 5 5 5 5 5 5 5 5 4 5 5 4 7 7 7 8 10 10 10 9 10 9 8 10 10 8 7 9 7 8 8 8 9 8 11 11 13 14 15 12 12 13 12 9 10
5 5 5 5 5 5 5 5 5 4 4 5 5 6 8 7 8 8 7 7 8 10 9 9 9 9 9 8 9 6 7 9 7 8 8 7 7 8 9 11 10 9 12 14 13 10 11
5 5 5 5 5 5 5 4 5 4 4 5 3 6 6 6 7 5 7 7 6 7 9 9 6 7 8 6 7 7 8 8 9 9 9 7 7 8 8 8 8 8 8 12 11 11 11
4 4 5 5 4 4 4 4 4 4 4 5 4 4 3 4 5 7 6 6 6 7 7 6 6 6 7 6 7 5 6 6 6 7 8 6 7 7 7 9 9 7 7 7 8 10 10
4 4 4 4 4 4 4 4 4 4 4 5 4 4 3 5 6 6 7 7 6 7 7 6 6 5 5 7 6 6 6 6 5 5 5 6 6 6 6 9 8 7 6 6 4 1 2
4 4 4 4 4 4 4 4 4 4 4 4 4 3 2 4 5 6 7 6 6 6 5 6 6 5 6 7 6 5 4 4 4 4 5 5 6 6 6 7 6 1 2 1 -2 -3 -2
4 4 4 4 4 4 4 4 4 3 3 4 4 4 3 4 5 5 6 5 5 6 6 6 6 6 6 5 4 5 7 5 5 4 5 5 5 5 6 7 6 2 -3 -3 -2 -4 -5
3 3 3 3 3 3 3 3 3 3 3 4 4 3 3 3 6 5 4 5 4 5 6 7 7 3 4 4 4 5 5 6 6 5 4 4 4 5 7 6 5 -4 -6 -6 -5 -2 -6
3 3 3 3 3 3 3 3 3 3 3 3 4 4 3 3 4 3 4 2 3 4 4 6 3 4 3 5 5 5 6 4 5 5 4 5 4 5 6 6 -4 -9 -8 -7 -1 -6 -7
3 3 3 3 3 2 2 2 2 2 2 3 4 3 3 2 3 1 -1 0 1 1 2 3 3 3 4 4 5 6 5 5 4 -3 -2 -2 -3 -1 -0 4 -1 -10 -8 -7 -9 -9 -9
3 3 3 3 3 2 2 1 1 1 2 3 4 3 3 2 1 -2 -2 -3 -3 -2 -1 1 1 1 3 4 4 4 5 4 3 2 -6 -3 -8 -6 -9 -9 -10 -11 -11 -10 -10 -10 -10
Height
840 838 836 833 830 828 825 822 818 815 811 807 803 799 794 789 784 778 773 767 762 758 754 752 750 751 751 746 729 723 722 725 729 731 730 729 729 731 730 723 725 726 719 714 714 717 717
840 838 836 834 831 828 825 822 818 814 811 807 802 798 792 787 781 775 768 760 754 751 747 746 746 749 749 740 722 721 723 724 725 728 728 727 724 722 721 720 721 712 716 715 712 715 717
842 840 837 834 831 828 824 821 818 814 810 806 801 796 791 784 778 770 762 755 749 744 741 739 739 744 740 724 721 721 723 723 724 725 724 725 724 725 720 723 715 718 725 717 713 712 714
843 840 838 834 831 828 825 821 817 814 810 805 800 794 789 782 775 766 758 749 742 736 733 732 734 739 726 717 719 720 721 722 724 725 725 724 726 725 720 716 722 725 720 722 694 695 705
843 841 838 835 832 829 825 821 817 813 809 804 799 793 787 780 771 763 753 744 738 734 733 733 736 735 719 716 717 717 720 720 723 725 726 726 726 723 722 727 723 714 713 707 702 697 702
844 841 838 835 832 829 826 821 817 812 808 804 798 791 785 777 768 759 749 738 736 735 736 736 734 736 717 713 715 716 718 719 721 723 727 726 724 724 720 716 711 701 701 698 700 689 701
845 842 838 835 832 829 826 821 817 812 808 803 797 791 783 776 768 761 749 739 738 732 735 727 719 714 716 717 716 716 717 718 718 719 720 719 722 716 706 700 696 691 689 686 681 682 700
845 842 839 836 833 829 826 821 817 812 807 802 797 790 782 774 768 763 759 756 765 765 745 725 718 717 717 721 718 712 716 717 716 715 710 713 714 700 694 693 694 697 697 693 686 681 685
845 842 839 836 832 828 825 821 816 811 806 801 795 790 783 774 767 766 764 766 765 762 749 712 713 712 711 717 710 706 711 709 708 710 703 703 691 694 694 696 698 696 695 694 692 685 689
845 842 839 835 831 828 824 820 815 811 806 800 795 789 783 775 769 767 764 766 764 762 734 700 706 706 711 711 709 705 706 707 705 706 701 695 686 690 694 695 694 695 685 687 690 701 699
844 842 839 835 831 826 822 818 814 810 804 800 795 789 783 778 777 772 770 765 764 763 725 698 702 704 703 706 704 705 706 707 704 701 703 688 689 694 694 684 686 689 689 686 692 697 697
844 841 838 834 830 826 822 817 813 808 803 799 795 788 782 777 775 771 768 765 763 744 721 695 698 700 701 697 696 700 702 705 701 701 694 690 685 693 685 682 685 685 693 693 693 692 694
843 840 837 833 829 825 821 816 811 807 802 797 793 787 781 777 772 769 767 762 745 730 691 695 700 701 700 694 692 695 697 699 695 704 691 680 679 679 683 687 686 687 687 690 693 694 680
842 838 835 832 828 824 820 815 811 806 801 796 791 785 780 775 772 771 768 753 738 700 693 710 710 706 702 686 684 682 687 684 679 681 680 678 669 664 667 672 667 676 673 669 666 658 650
841 837 834 830 826 823 819 814 810 805 801 795 789 784 777 776 772 771 764 745 719 727 730 726 711 700 691 692 702 691 684 677 667 666 679 661 655 658 659 659 664 658 666 653 660 648 657
839 836 832 828 826 822 817 813 808 804 799 794 789 782 775 774 771 769 758 739 733 738 739 730 723 706 698 691 690 688 680 668 672 667 667 661 662 646 655 667 661 654 651 667 661 663 655
837 834 830 828 824 820 817 812 807 802 797 792 789 783 777 776 774 768 767 747 737 742 744 738 727 721 710 705 700 696 686 676 676 678 680 672 668 657 662 660 654 661 661 652 644 640 637
835 832 828 826 822 818 815 811 807 802 797 792 791 787 778 778 774 764 755 749 755 748 745 740 736 732 725 721 722 706 697 689 689 698 691 680 684 660 652 650 660 662 656 647 648 646 636
833 830 827 823 820 816 813 810 806 803 799 795 790 790 779 780 772 765 754 753 752 749 742 743 744 735 730 732 733 714 720 713 711 711 703 706 682 669 658 653 652 664 666 660 663 681 670
830 827 824 821 817 814 811 808 805 803 800 798 794 785 775 777 774 769 766 763 754 745 743 741 739 733 731 729 723 730 725 711 714 712 709 711 703 696 677 664 672 675 656 649 655 670 659
829 825 822 818 815 812 809 806 804 802 799 799 799 789 787 778 771 774 768 766 759 751 741 738 745 738 733 733 725 719 712 714 710 702 700 706 699 691 691 687 686 680 681 652 657 660 661
828 824 820 816 813 810 808 805 803 801 799 799 798 796 794 787 779 768 764 761 756 750 749 740 741 738 730 732 726 727 720 721 714 706 701 705 696 691 691 678 679 686 690 688 679 666 667
827 823 819 815 812 809 806 804 802 800 798 796 796 798 796 785 774 768 760 755 753 750 739 740 739 740 735 727 726 723 721 716 716 716 711 704 699 699 692 678 683 690 695 690 702 725 721
829 824 819 816 812 808 805 803 802 800 798 797 796 797 796 783 775 765 759 756 753 749 748 739 738 737 727 726 723 717 715 712 710 705 704 699 698 699 691 687 691 726 724 722 740 755 752
827 822 819 816 812 808 806 804 802 800 798 797 795 794 793 782 775 764 760 757 753 746 739 735 733 733 731 729 723 708 692 700 691 697 697 700 701 698 692 677 691 722 749 755 750 767 771
826 823 818 814 811 808 806 804 800 796 794 793 792 791 790 786 766 767 763 757 751 746 736 731 730 735 734 729 722 711 700 692 683 695 702 704 706 702 683 689 687 767 778 773 769 758 784
825 821 817 813 809 806 804 800 796 792 791 790 788 787 785 782 772 770 765 766 760 754 747 734 741 732 734 722 714 706 694 703 693 697 698 699 702 699 685 685 764 799 786 776 742 787 793
823 819 815 812 808 805 801 798 793 790 787 786 781 781 781 778 772 772 774 773 768 765 758 748 740 733 728 721 710 697 701 700 704 751 749 750 753 742 734 694 738 803 785 783 809 805 804
821 817 813 810 808 804 800 796 792 788 785 783 778 777 777 777 774 774 776 777 777 776 771 760 755 750 737 726 720 713 704 706 713 718 777 760 798 786 802 807 820 820 816 816 813 812 809
Wind_Speed
14 15 15 16 17 18 19 20 21 22 23 24 24 25 26 27 29 30 31 33 33 29 27 24 20 16 6 8 15 10 9 17 16 18 21 17 18 18 15 14 19 22 21 17 15 16 17
14 14 16 17 18 19 20 21 22 23 23 25 26 27 29 30 31 33 36 38 35 31 27 23 17 10 8 17 6 8 14 17 15 19 19 19 10 18 10 17 17 8 17 20 17 17 13
13 14 15 16 18 19 20 21 23 24 24 25 26 28 31 33 34 36 41 36 35 32 28 24 17 13 13 20 2 8 14 14 15 16 13 18 19 8 5 12 17 12 15 15 19 20 16
13 15 16 17 18 19 21 22 23 24 25 26 27 28 29 32 35 39 40 36 36 30 19 10 6 14 8 4 6 11 13 10 11 13 12 10 12 14 15 4 4 10 15 14 9 17 10
14 15 16 18 19 20 21 22 23 24 25 27 29 30 32 33 36 42 34 36 21 9 4 4 8 9 6 1 5 10 14 9 10 9 7 5 8 11 8 14 13 15 15 19 17 11 8
14 16 17 18 19 20 22 22 23 22 24 26 28 30 32 36 40 36 34 28 8 2 2 4 3 6 5 1 2 4 11 10 7 9 5 8 8 10 12 14 15 15 22 19 17 10 13
15 16 17 18 19 20 21 22 24 22 25 27 29 31 32 35 39 27 31 9 6 5 5 8 10 12 5 4 2 6 11 13 8 12 12 15 10 16 24 22 23 23 23 21 14 12 10
16 17 18 19 19 20 22 23 23 24 25 28 30 33 34 36 32 19 16 5 4 7 12 14 18 18 23 12 5 7 8 11 10 14 15 10 19 21 19 19 19 21 25 24 20 18 15
16 17 17 19 20 21 22 23 24 25 26 28 31 37 38 40 18 12 9 8 10 5 7 6 4 4 1 9 7 14 13 9 15 17 20 22 16 3 16 21 25 23 25 22 23 17 12
17 19 20 20 22 22 23 23 24 25 26 29 31 35 37 40 7 20 4 12 14 3 6 4 4 3 5 3 4 3 9 10 11 15 18 17 22 24 24 19 19 21 20 20 19 12 15
17 19 20 21 22 23 23 25 25 25 27 30 33 33 34 22 16 12 12 17 14 4 7 4 5 5 4 6 2 7 4 8 12 11 6 7 10 8 16 25 18 17 7 12 14 14 15
18 20 21 22 23 24 25 25 25 26 28 30 31 33 37 19 14 13 17 18 6 5 9 3 3 3 5 9 6 6 7 6 2 12 18 22 7 5 14 8 10 1 6 5 7 10 10
19 19 21 22 23 24 25 26 26 26 27 31 31 34 24 17 8 17 15 6 5 6 1 2 2 2 4 5 7 10 12 11 9 6 13 16 24 20 15 12 7 13 10 5 9 8 10
20 20 20 21 23 24 25 25 27 27 27 30 34 28 24 13 12 12 11 5 9 9 11 6 5 12 9 7 9 12 8 17 20 19 13 10 13 19 19 21 14 22 19 10 11 14 15
19 20 21 22 22 23 24 25 25 27 30 29 26 22 18 6 8 8 5 7 6 12 8 14 18 12 15 4 5 6 15 19 18 20 13 10 18 5 9 13 15 16 19 24 23 23 14
18 19 21 21 22 22 23 25 26 25 28 28 20 16 9 5 7 6 5 12 12 9 13 11 11 13 21 19 14 10 11 6 8 13 14 15 20 18 10 6 13 16 5 10 11 14 22
18 19 20 21 21 22 24 24 24 25 25 24 8 6 6 8 8 5 3 9 15 11 13 10 17 23 24 23 21 21 18 15 10 9 10 13 15 18 5 11 17 10 11 12 11 15 13
18 19 19 20 23 22 23 23 23 24 26 14 4 3 6 11 4 3 6 11 7 14 18 21 21 21 22 22 18 22 26 21 13 13 13 14 7 16 22 6 5 9 10 20 13 20 12
19 20 20 20 21 22 22 21 22 22 22 11 6 3 5 3 4 9 12 15 14 18 19 9 12 20 18 17 12 12 12 21 13 11 7 10 8 15 20 16 14 10 14 12 7 2 7
19 19 20 20 21 21 21 21 21 19 18 11 3 4 2 0 6 13 16 13 18 18 18 15 20 20 19 17 17 8 22 10 8 16 12 10 4 13 10 14 12 9 21 22 17 6 12
18 19 19 19 19 19 19 19 17 16 15 7 2 2 5 7 12 12 18 18 22 23 22 19 7 12 20 17 19 19 16 21 21 26 13 4 8 10 11 12 11 10 17 16 16 16 11
17 17 17 17 17 17 18 18 15 15 13 2 1 2 3 9 10 18 15 15 19 18 19 19 16 18 21 16 18 20 18 14 11 11 11 4 9 8 12 11 10 9 10 14 10 11 8
17 16 16 16 17 17 17 15 14 11 9 3 1 1 2 8 12 13 12 18 23 21 15 15 15 13 16 19 16 15 15 17 15 15 17 5 2 3 6 9 9 9 7 7 4 11 6
15 16 17 17 16 16 16 16 14 11 7 5 4 1 2 8 10 13 21 21 19 22 19 18 15 14 12 19 16 14 15 18 16 19 14 10 5 3 6 6 10 6 11 12 16 12 11
14 16 16 16 17 17 16 16 14 12 10 9 7 4 2 7 11 18 17 19 21 17 13 13 16 10 10 6 7 10 7 4 7 11 11 7 3 3 4 7 1 3 9 8 7 8 12
16 16 17 17 18 19 18 17 16 14 12 10 9 8 3 4 3 19 17 17 13 9 12 12 6 4 2 3 5 5 5 7 1 3 4 2 3 5 6 7 6 6 17 14 12 3 12
16 16 17 18 18 17 18 18 16 15 14 10 9 10 6 4 4 5 5 6 6 7 8 12 7 6 4 3 6 5 6 1 3 3 2 2 3 10 10 8 5 16 17 12 4 5 10
17 18 18 18 19 20 19 21 22 21 17 14 12 11 6 2 7 3 4 3 5 4 6 8 7 1 3 4 4 5 3 1 1 4 5 5 6 4 5 5 2 23 7 6 7 9 10
19 21 20 16 18 21 19 21 24 22 19 12 6 6 7 3 2 3 8 5 3 5 5 4 6 11 4 4 4 4 3 4 5 2 9 2 5 3 6 4 7 10 12 11 11 8 11
Wind_Direction
32 26 22 18 14 11 7 3 359 356 353 350 347 345 343 339 336 333 329 324 317 311 306 303 303 308 304 238 248 270 190 170 169 185 195 192 195 202 219 230 230 226 245 253 250 260 250
28 22 17 13 9 5 2 359 358 356 352 349 346 343 340 337 334 331 329 325 320 313 304 299 293 287 231 249 269 196 174 173 184 192 209 211 221 221 270 248 228 221 247 255 247 251 241
19 15 12 10 5 2 359 356 352 349 347 346 343 340 337 335 332 330 330 326 321 312 303 295 279 215 238 244 255 198 189 200 199 202 216 220 233 223 222 253 243 257 262 259 246 242 238
15 11 8 6 3 359 356 353 349 347 344 343 341 340 336 333 329 330 330 327 321 310 301 286 212 188 251 224 233 209 199 206 212 214 231 235 225 240 248 269 237 237 237 256 246 226 215
14 10 9 7 6 1 356 354 352 351 349 347 345 343 340 336 332 334 331 328 329 345 342 146 149 214 256 188 207 217 206 210 198 198 209 200 198 223 201 233 250 231 256 237 254 200 187
11 8 7 4 2 358 355 352 349 346 347 345 345 342 341 339 339 338 337 335 310 9 67 213 241 232 228 316 132 187 198 198 187 172 173 201 211 219 220 220 227 234 237 237 258 205 218
7 3 2 360 359 357 354 352 352 349 346 346 345 344 342 339 343 344 346 344 347 200 352 280 291 272 262 346 218 204 181 185 188 196 208 198 216 218 230 231 248 267 280 278 244 221 219
4 360 357 357 357 356 352 352 352 352 349 346 345 344 343 340 344 1 360 46 43 288 297 273 262 262 266 282 274 191 182 196 203 218 216 201 235 244 248 257 256 261 260 265 268 271 258
356 351 350 349 350 349 348 347 347 346 347 347 345 345 345 342 342 351 0 30 334 291 273 281 220 246 215 187 232 243 190 219 235 243 236 234 245 226 247 254 255 248 256 261 263 267 238
350 347 345 344 344 340 339 339 341 340 340 342 343 344 347 347 331 337 352 339 333 269 285 176 173 143 157 247 239 199 220 213 215 243 245 256 262 253 249 252 248 256 253 257 259 258 251
346 344 343 343 342 342 340 337 335 336 337 338 339 339 341 354 307 323 325 327 326 260 302 117 154 137 163 221 3 175 189 205 239 215 226 230 230 227 230 240 245 258 328 252 240 248 260
345 343 342 341 341 340 339 336 336 335 334 335 337 336 340 340 305 289 313 318 292 247 248 154 151 206 226 199 200 148 189 216 288 256 245 254 250 251 238 251 247 139 209 204 222 228 239
342 341 343 341 341 339 337 337 338 333 335 334 336 333 336 326 296 317 316 290 262 229 101 131 285 298 274 245 223 205 196 197 208 212 226 237 240 230 228 237 204 198 203 220 218 205 244
340 339 341 341 340 340 339 338 337 335 336 336 331 336 326 319 314 318 312 247 246 275 286 30 327 301 257 293 240 230 252 239 224 245 270 264 262 208 204 220 205 206 210 217 237 234 244
339 341 339 340 341 339 337 338 338 338 338 339 341 332 326 331 334 329 284 243 287 10 357 337 316 265 280 219 266 260 246 256 251 221 226 245 246 130 196 213 223 228 217 237 261 271 277
339 339 340 340 339 336 338 338 339 340 339 340 333 326 298 310 325 287 258 250 295 353 331 310 288 294 287 291 288 263 271 320 262 268 260 267 268 248 193 219 242 242 258 206 215 236 239
340 339 341 338 337 338 338 338 339 339 340 345 353 322 53 351 325 284 248 274 305 312 322 313 308 303 294 293 291 282 277 286 285 299 276 270 258 263 184 212 232 206 233 236 262 230 250
340 338 337 337 338 338 339 339 341 342 347 353 325 309 355 332 293 252 278 320 335 299 304 297 293 289 291 302 296 289 283 281 357 321 301 284 296 256 250 252 345 301 274 245 238 240 242
336 336 331 331 331 331 333 337 343 348 355 342 328 285 332 289 302 311 295 302 299 291 292 297 302 302 306 307 307 299 342 338 346 358 337 5 276 268 261 258 223 233 251 249 254 178 241
337 335 333 333 333 335 332 331 337 346 353 351 327 308 257 291 300 294 301 305 301 300 295 289 305 302 296 292 292 292 304 300 270 281 285 271 239 296 292 301 318 289 250 243 226 250 258
343 339 336 336 339 342 342 341 339 344 345 347 15 342 341 305 320 331 317 301 296 290 304 296 286 278 290 299 307 298 308 314 306 296 282 272 276 295 300 335 330 294 290 241 224 233 239
348 352 353 352 352 351 348 350 349 350 348 0 327 318 342 293 283 304 312 309 305 304 315 293 274 290 288 293 291 294 307 299 307 328 312 225 275 285 292 305 297 292 294 312 298 265 240
354 356 356 356 355 353 351 350 350 347 354 307 179 258 256 295 308 311 306 314 307 313 314 274 291 302 302 291 312 298 291 280 261 265 273 273 273 271 269 266 282 264 307 304 53 41 345
351 355 356 355 354 355 354 350 344 344 342 315 316 222 249 286 302 305 312 304 311 314 305 302 288 285 288 315 304 281 260 257 256 256 254 248 253 250 283 277 255 55 36 66 86 50 41
359 1 357 357 359 356 352 348 346 344 338 322 281 270 243 289 305 300 321 313 306 297 294 302 298 301 316 322 299 296 286 254 247 236 238 229 255 272 252 276 128 102 28 11 359 54 24
359 354 356 357 356 354 348 342 336 334 327 314 288 269 243 295 264 321 307 303 300 319 316 327 336 357 304 268 266 267 295 301 239 108 64 122 276 254 281 284 287 30 333 332 313 126 21
352 354 354 356 354 352 345 335 330 323 311 291 273 266 256 258 264 336 325 324 311 314 293 309 348 288 189 264 278 254 279 333 316 351 351 182 220 232 258 259 93 347 313 307 221 27 12
350 347 345 345 339 347 347 347 345 334 312 303 272 265 238 258 295 27 30 348 329 351 314 338 312 116 278 264 285 324 299 42 58 47 7 25 331 24 315 298 141 354 20 37 344 29 15
355 349 342 340 338 344 343 350 350 342 330 305 271 256 255 230 330 98 104 84 49 326 304 310 298 292 329 321 351 319 326 354 17 79 28 63 10 9 16 77 54 26 37 33 22 24 17